This is the latest recevied weather packets stored in our database for station/object PP5KJ-13. If no packets are shown the sender has not sent any weather packets the latest 10 day(s).
| Time | Temp. | Humidity | Pressure | Rain* | Wind** | Luminosity | Snow |
|---|---|---|---|---|---|---|---|
| 1788029540 | 22.22° C | 5% | 1010 hPa | 0 mm | 4.92 m/s, 180° | - | - |
| 1788028940 | 22.22° C | 5% | 1010 hPa | 0 mm | 4.92 m/s, 180° | - | - |
| 1788028340 | 22.78° C | 5% | 1009 hPa | 0 mm | 4.92 m/s, 180° | - | - |
| 1788027740 | 22.78° C | 5% | 1009 hPa | 0 mm | 4.92 m/s, 180° | - | - |
| 1788027139 | 22.78° C | 5% | 1009 hPa | 0 mm | 4.92 m/s, 180° | - | - |
| 1788026539 | 22.78° C | 5% | 1009 hPa | 0 mm | 3.58 m/s, 180° | - | - |
| 1788025939 | 22.78° C | 5% | 1009 hPa | 0 mm | 3.58 m/s, 180° | - | - |
| 1788025340 | 22.78° C | 5% | 1010 hPa | 0.25 mm | 3.58 m/s, 180° | - | - |
| 1788025059 | 23.33° C | 5% | 1010 hPa | 0.25 mm | 3.58 m/s, 180° | - | - |
| 1788000428 | 20.56° C | 5% | 1010 hPa | 1.27 mm | 4.92 m/s, 120° | - | - |
| 1787999828 | 20.56° C | 5% | 1010 hPa | 2.03 mm | 4.92 m/s, 120° | - | - |
| 1787999228 | 20.56° C | 5% | 1009 hPa | 3.05 mm | 4.92 m/s, 120° | - | - |
| 1787998628 | 21.11° C | 5% | 1009 hPa | 3.05 mm | 4.92 m/s, 120° | - | - |
| 1787998029 | 21.11° C | 5% | 1009 hPa | 0.76 mm | 4.92 m/s, 120° | - | - |
| 1787997594 | 21.11° C | 5% | 1009 hPa | 0 mm | 4.92 m/s, 120° | - | - |
| 1787996994 | 20.56° C | 5% | 1009 hPa | 0 mm | 4.92 m/s, 120° | - | - |
| 1787996394 | 20.56° C | 5% | 1009 hPa | 0 mm | 4.92 m/s, 120° | - | - |
| 1787995794 | 20.56° C | 5% | 1008 hPa | 0 mm | 4.92 m/s, 120° | - | - |
| 1787995194 | 20.56° C | 5% | 1008 hPa | 0 mm | 4.92 m/s, 120° | - | - |
| 1787994594 | 20.56° C | 5% | 1008 hPa | 0.25 mm | 4.92 m/s, 120° | - | - |
| 1787993394 | 20.56° C | 5% | 1008 hPa | 0.25 mm | 4.92 m/s, 120° | - | - |
| 1787992794 | 20.56° C | 5% | 1008 hPa | 0.25 mm | 4.92 m/s, 120° | - | - |
| 1787992194 | 20.56° C | 5% | 1008 hPa | 0.25 mm | 4.92 m/s, 120° | - | - |
| 1787991594 | 20.56° C | 5% | 1008 hPa | 0.25 mm | 4.92 m/s, 120° | - | - |
| 1787990994 | 20.56° C | 5% | 1008 hPa | 0.25 mm | 4.92 m/s, 120° | - | - |
* Rain latest hour (hover to see other rain measurements)
** Current wind speed in m/s (hover to see current wind gust speed)